Location: Colebrook
(42.0017°N, 73.0973°W)
Time: 16:21:17
(UTC-05:00)

Vanguard 2 - Pass Details

Date: 31 October 2021
Orbit: 554 x 2936 km, 32.9° (Epoch: 04 December)

Event Time Altitude Azimuth Distance (km) Brightness Sun altitude
Exits shadow 03:47:28 33° 146° (SSE) 2,279 9.9 -40.4°
Drops below altitude 10° 03:51:31 10° 125° (SE) 3,179 11.0 -39.7°
Sets 03:53:53 0° 119° (ESE) 3,887 11.6 -39.2°
